• In Hungary
  • List of Countries
  • For 7 days
  • Water Temperature
  • Satellite Maps
  • Weather Map
  • News
  • Weather Widgets
  • user-avatar
    Login

    Hourly Weather Orawka

    Today, 23 October, Tuesday

    Time Temperature Precipitation Wind Pressure Humidity
    00:00 +5°C° 0.1 mm 2 mps 707 mmHg 82%
    01:00 +6°C° 0 mm 2 mps 707 mmHg 85%
    02:00 +5°C° 0 mm 2 mps 707 mmHg 87%
    03:00 +5°C° 0 mm 2 mps 707 mmHg 89%
    04:00 +5°C° 0 mm 2 mps 706 mmHg 90%
    05:00 +4°C° 0 mm 2 mps 706 mmHg 92%
    06:00 +3°C° 0 mm 2 mps 706 mmHg 93%
    07:00 +3°C° 0 mm 2 mps 705 mmHg 92%
    08:00 +4°C° 0 mm 2 mps 705 mmHg 82%
    09:00 +5°C° 0 mm 3 mps 704 mmHg 71%
    10:00 +6°C° 0 mm 4 mps 704 mmHg 61%
    11:00 +6°C° 0 mm 4 mps 703 mmHg 59%
    12:00 +7°C° 0 mm 5 mps 702 mmHg 57%
    13:00 +5°C° 0 mm 6 mps 701 mmHg 58%
    14:00 +5°C° 0.1 mm 6 mps 700 mmHg 61%
    15:00 +4°C° 0.1 mm 6 mps 699 mmHg 64%
    16:00 +4°C° 0.1 mm 6 mps 698 mmHg 66%
    17:00 +4°C° 0.9 mm 6 mps 697 mmHg 72%
    18:00 +3°C° 0.9 mm 6 mps 697 mmHg 77%
    19:00 +3°C° 0.9 mm 6 mps 696 mmHg 82%
    20:00 +3°C° 1.2 mm 6 mps 695 mmHg 84%
    21:00 +4°C° 1.2 mm 6 mps 694 mmHg 85%
    22:00 +4°C° 1.2 mm 6 mps 694 mmHg 86%
    23:00 +4°C° 1.2 mm 7 mps 693 mmHg 87%

    Tomorrow, 24 October, Wednesday

    Time Temperature Precipitation Wind Pressure Humidity
    00:00 +5°C° 1.2 mm 7 mps 693 mmHg 88%
    01:00 +5°C° 1.2 mm 7 mps 692 mmHg 88%
    02:00 +5°C° 1.9 mm 7 mps 692 mmHg 88%
    03:00 +4°C° 1.9 mm 7 mps 691 mmHg 87%
    04:00 +4°C° 1.9 mm 7 mps 691 mmHg 86%
    05:00 +4°C° 1 mm 7 mps 691 mmHg 84%
    06:00 +3°C° 1 mm 7 mps 691 mmHg 82%
    07:00 +1°C° 1 mm 8 mps 691 mmHg 80%
    08:00 +1°C° 0.3 mm 8 mps 692 mmHg 77%
    09:00 +1°C° 0.3 mm 8 mps 692 mmHg 73%
    10:00 +1°C° 0.3 mm 8 mps 693 mmHg 70%
    11:00 +1°C° 0.2 mm 8 mps 693 mmHg 66%
    12:00 +1°C° 0.2 mm 8 mps 694 mmHg 63%
    13:00 +1°C° 0.2 mm 8 mps 694 mmHg 60%
    14:00 +2°C° 0.1 mm 7 mps 695 mmHg 60%
    15:00 0°C° 0.1 mm 7 mps 695 mmHg 61%
    16:00 +1°C° 0.1 mm 6 mps 696 mmHg 61%
    17:00 +1°C° 0.1 mm 6 mps 696 mmHg 63%
    18:00 0°C° 0.1 mm 5 mps 697 mmHg 65%
    19:00 0°C° 0.1 mm 5 mps 698 mmHg 67%
    20:00 -1°C° 0 mm 4 mps 698 mmHg 70%
    21:00 -1°C° 0 mm 4 mps 698 mmHg 72%
    22:00 -2°C° 0 mm 4 mps 699 mmHg 75%
    23:00 -2°C° 0 mm 4 mps 699 mmHg 78%

    Day after tomorrow, 25 October, Thursday

    Time Temperature Precipitation Wind Pressure Humidity
    00:00 -1°C° 0 mm 3 mps 699 mmHg 80%
    01:00 -1°C° 0 mm 3 mps 700 mmHg 83%
    02:00 -1°C° 0 mm 3 mps 699 mmHg 85%
    03:00 -2°C° 0 mm 3 mps 699 mmHg 87%
    04:00 -2°C° 0 mm 3 mps 699 mmHg 89%
    05:00 -1°C° 0.1 mm 3 mps 699 mmHg 86%
    06:00 0°C° 0.1 mm 3 mps 699 mmHg 84%
    07:00 0°C° 0.1 mm 3 mps 699 mmHg 81%
    08:00 +1°C° 0.5 mm 3 mps 698 mmHg 83%
    09:00 +1°C° 0.5 mm 4 mps 698 mmHg 85%
    10:00 +3°C° 0.5 mm 4 mps 698 mmHg 87%
    11:00 +4°C° 0.2 mm 4 mps 697 mmHg 86%
    12:00 +6°C° 0.2 mm 5 mps 697 mmHg 85%
    13:00 +7°C° 0.2 mm 5 mps 697 mmHg 84%
    14:00 +7°C° 0.2 mm 5 mps 696 mmHg 86%
    15:00 +7°C° 0.2 mm 5 mps 696 mmHg 87%
    16:00 +7°C° 0.2 mm 5 mps 696 mmHg 88%
    17:00 +6°C° 0.2 mm 5 mps 697 mmHg 88%
    18:00 +6°C° 0.2 mm 5 mps 697 mmHg 89%
    19:00 +6°C° 0.2 mm 5 mps 697 mmHg 89%
    20:00 +6°C° 0.2 mm 4 mps 697 mmHg 90%
    21:00 +5°C° 0.2 mm 4 mps 698 mmHg 90%
    22:00 +5°C° 0.2 mm 4 mps 698 mmHg 91%
    23:00 +5°C° 0.1 mm 4 mps 698 mmHg 91%

    26 October, Friday

    Time Temperature Precipitation Wind Pressure Humidity
    00:00 +5°C° 0.1 mm 3 mps 698 mmHg 91%
    01:00 +4°C° 0.1 mm 3 mps 698 mmHg 91%
    02:00 +4°C° 0 mm 3 mps 698 mmHg 91%
    03:00 +5°C° 0 mm 2 mps 698 mmHg 92%
    04:00 +4°C° 0 mm 2 mps 698 mmHg 93%
    05:00 +4°C° 0 mm 2 mps 698 mmHg 93%
    06:00 +4°C° 0 mm 2 mps 698 mmHg 93%
    07:00 +5°C° 0 mm 2 mps 698 mmHg 93%
    08:00 +6°C° 0 mm 2 mps 699 mmHg 88%
    09:00 +7°C° 0 mm 3 mps 699 mmHg 83%
    10:00 +8°C° 0 mm 3 mps 699 mmHg 78%
    11:00 +8°C° 0 mm 3 mps 699 mmHg 77%
    12:00 +9°C° 0 mm 3 mps 698 mmHg 75%
    13:00 +8°C° 0 mm 4 mps 698 mmHg 73%
    14:00 +9°C° 0 mm 3 mps 697 mmHg 77%
    15:00 +8°C° 0 mm 3 mps 697 mmHg 80%
    16:00 +8°C° 0 mm 2 mps 696 mmHg 84%
    17:00 +7°C° 0 mm 3 mps 696 mmHg 86%
    18:00 +7°C° 0 mm 3 mps 696 mmHg 88%
    19:00 +5°C° 0 mm 3 mps 696 mmHg 91%
    20:00 +5°C° 0 mm 3 mps 696 mmHg 91%
    21:00 +7°C° 0 mm 3 mps 696 mmHg 91%
    22:00 +6°C° 0 mm 4 mps 696 mmHg 91%
    23:00 +6°C° 0 mm 4 mps 696 mmHg 91%

    27 October, Saturday

    Time Temperature Precipitation Wind Pressure Humidity
    00:00 +5°C° 0 mm 4 mps 696 mmHg 91%
    01:00 +5°C° 0 mm 4 mps 696 mmHg 91%
    02:00 +5°C° 0 mm 3 mps 696 mmHg 90%
    03:00 +5°C° 0 mm 3 mps 696 mmHg 90%
    04:00 +4°C° 0 mm 3 mps 696 mmHg 89%
    05:00 +4°C° 0 mm 3 mps 696 mmHg 88%
    06:00 +4°C° 0 mm 3 mps 696 mmHg 87%
    07:00 +4°C° 0 mm 3 mps 697 mmHg 86%
    08:00 +4°C° 0 mm 3 mps 697 mmHg 80%
    09:00 +5°C° 0 mm 3 mps 698 mmHg 74%
    10:00 +5°C° 0 mm 3 mps 698 mmHg 67%
    11:00 +6°C° 0 mm 2 mps 698 mmHg 64%
    12:00 +7°C° 0 mm 2 mps 698 mmHg 61%
    13:00 +7°C° 0 mm 2 mps 698 mmHg 58%
    14:00 +7°C° 0 mm 1 mps 698 mmHg 62%
    15:00 +7°C° 0 mm 1 mps 698 mmHg 65%
    16:00 +6°C° 0 mm 1 mps 698 mmHg 69%
    17:00 +6°C° 0.3 mm 1 mps 698 mmHg 71%
    18:00 +5°C° 0.3 mm 1 mps 698 mmHg 74%
    19:00 +5°C° 0.3 mm 1 mps 698 mmHg 76%
    20:00 +5°C° 0.3 mm 1 mps 698 mmHg 78%
    21:00 +5°C° 0.3 mm 1 mps 698 mmHg 80%
    22:00 +4°C° 0.3 mm 1 mps 699 mmHg 82%
    23:00 +4°C° 0.4 mm 1 mps 699 mmHg 84%

    28 October, Sunday

    Time Temperature Precipitation Wind Pressure Humidity
    00:00 +4°C° 0.4 mm 1 mps 699 mmHg 85%
    01:00 +3°C° 0.4 mm 2 mps 699 mmHg 87%
    02:00 +3°C° 0.6 mm 2 mps 699 mmHg 88%
    03:00 +3°C° 0.6 mm 2 mps 699 mmHg 89%
    04:00 +2°C° 0.6 mm 2 mps 698 mmHg 90%
    05:00 +2°C° 0.6 mm 2 mps 698 mmHg 90%
    06:00 +2°C° 0.6 mm 2 mps 698 mmHg 90%
    07:00 +2°C° 0.6 mm 2 mps 698 mmHg 91%
    08:00 +3°C° 0.5 mm 2 mps 698 mmHg 90%
    09:00 +3°C° 0.5 mm 2 mps 699 mmHg 90%
    10:00 +4°C° 0.5 mm 2 mps 699 mmHg 90%
    11:00 +4°C° 0.2 mm 2 mps 698 mmHg 91%
    12:00 +4°C° 0.2 mm 2 mps 698 mmHg 91%
    13:00 +5°C° 0.2 mm 2 mps 698 mmHg 92%
    14:00 +5°C° 0.7 mm 2 mps 698 mmHg 93%
    15:00 +5°C° 0.7 mm 2 mps 697 mmHg 94%
    16:00 +5°C° 0.7 mm 2 mps 697 mmHg 96%
    17:00 +5°C° 2.1 mm 2 mps 697 mmHg 96%
    18:00 +5°C° 2.1 mm 2 mps 697 mmHg 96%
    19:00 +5°C° 2.1 mm 2 mps 697 mmHg 97%
    20:00 +6°C° 1 mm 2 mps 697 mmHg 97%
    21:00 +6°C° 1 mm 2 mps 697 mmHg 96%
    22:00 +6°C° 1 mm 2 mps 697 mmHg 96%
    23:00 +6°C° 0.5 mm 2 mps 697 mmHg 96%

    29 October, Monday

    Time Temperature Precipitation Wind Pressure Humidity
    00:00 +7°C° 0.5 mm 2 mps 697 mmHg 96%
    01:00 +7°C° 0.5 mm 2 mps 696 mmHg 96%
    02:00 +7°C° 0.2 mm 2 mps 696 mmHg 96%
    03:00 +7°C° 0.2 mm 2 mps 696 mmHg 96%
    04:00 +7°C° 0.2 mm 2 mps 696 mmHg 96%
    05:00 +7°C° 0.3 mm 2 mps 696 mmHg 96%
    06:00 +7°C° 0.3 mm 2 mps 696 mmHg 96%
    07:00 +7°C° 0.3 mm 2 mps 695 mmHg 96%
    08:00 +7°C° 0.6 mm 2 mps 696 mmHg 95%
    09:00 +8°C° 0.6 mm 2 mps 696 mmHg 95%
    10:00 +8°C° 0.6 mm 2 mps 696 mmHg 95%
    11:00 +8°C° 0.6 mm 2 mps 696 mmHg 95%
    12:00 +9°C° 0.6 mm 1 mps 695 mmHg 95%
    13:00 +9°C° 0.6 mm 1 mps 695 mmHg 95%
    14:00 +9°C° 0.1 mm 1 mps 695 mmHg 95%
    15:00 +9°C° 0.1 mm 1 mps 696 mmHg 95%
    16:00 +9°C° 0.1 mm 1 mps 696 mmHg 96%
    17:00 +9°C° 0.1 mm 1 mps 696 mmHg 96%
    18:00 +9°C° 0.1 mm 1 mps 696 mmHg 96%
    19:00 +9°C° 0.1 mm 1 mps 697 mmHg 97%
    20:00 +8°C° 0 mm 1 mps 697 mmHg 97%
    21:00 +7°C° 0 mm 2 mps 697 mmHg 97%
    22:00 +7°C° 0 mm 2 mps 697 mmHg 96%
    23:00 +7°C° 0 mm 2 mps 697 mmHg 96%
    Show more